QPF
0.00 0.00 0.00 0.00 0.00 0.00 0.00 0.00 0.00 0.00 0.00 0.00 0.00 0.00 0.00 0.00 0.00 0.00 0.00 0.00 0.00 0.00 0.00 0.00 0.00 0.00 0.00 0.00 0.00 0.00 0.00 0.00 0.00 0.00 0.00 0.00 0.00 0.00 0.00 0.00 0.00 0.00 0.00 0.00 0.00
0.00 0.00 0.00 0.00 0.00 0.00 0.00 0.00 0.00 0.00 0.00 0.00 0.00 0.00 0.00 0.00 0.00 0.00 0.00 0.00 0.00 0.00 0.00 0.00 0.00 0.00 0.00 0.00 0.00 0.00 0.00 0.00 0.00 0.00 0.00 0.00 0.00 0.00 0.00 0.00 0.00 0.00 0.00 0.00 0.00
0.00 0.00 0.00 0.00 0.00 0.00 0.00 0.00 0.00 0.00 0.00 0.00 0.00 0.00 0.00 0.00 0.00 0.00 0.00 0.00 0.00 0.00 0.00 0.00 0.00 0.00 0.00 0.00 0.00 0.00 0.00 0.00 0.00 0.00 0.00 0.00 0.00 0.00 0.00 0.00 0.00 0.00 0.00 0.00 0.00
0.00 0.00 0.00 0.00 0.00 0.00 0.00 0.00 0.00 0.00 0.00 0.00 0.00 0.00 0.00 0.00 0.00 0.00 0.00 0.00 0.00 0.00 0.00 0.00 0.00 0.00 0.00 0.00 0.00 0.00 0.00 0.00 0.00 0.00 0.00 0.00 0.00 0.00 0.00 0.00 0.00 0.00 0.00 0.00 0.00
0.00 0.00 0.00 0.00 0.00 0.00 0.00 0.00 0.00 0.00 0.00 0.00 0.00 0.00 0.00 0.00 0.00 0.00 0.00 0.00 0.00 0.00 0.00 0.00 0.00 0.00 0.00 0.00 0.00 0.00 0.00 0.00 0.00 0.00 0.00 0.00 0.00 0.00 0.00 0.00 0.00 0.00 0.00 0.00 0.00
0.00 0.00 0.00 0.00 0.00 0.00 0.00 0.00 0.00 0.00 0.00 0.00 0.00 0.00 0.00 0.00 0.00 0.00 0.00 0.00 0.00 0.00 0.00 0.00 0.00 0.00 0.00 0.00 0.00 0.00 0.00 0.00 0.00 0.00 0.00 0.00 0.00 0.00 0.00 0.00 0.00 0.00 0.00 0.00 0.00
0.00 0.00 0.00 0.00 0.00 0.00 0.00 0.00 0.00 0.00 0.00 0.00 0.00 0.00 0.00 0.00 0.00 0.00 0.00 0.00 0.00 0.00 0.00 0.00 0.00 0.00 0.00 0.00 0.00 0.00 0.00 0.00 0.00 0.00 0.00 0.00 0.00 0.00 0.00 0.00 0.00 0.00 0.00 0.00 0.00
0.00 0.00 0.00 0.00 0.00 0.00 0.00 0.00 0.00 0.00 0.00 0.00 0.00 0.00 0.00 0.00 0.00 0.00 0.00 0.00 0.00 0.00 0.00 0.00 0.00 0.00 0.00 0.00 0.00 0.00 0.00 0.00 0.00 0.00 0.00 0.00 0.00 0.00 0.00 0.00 0.00 0.00 0.00 0.00 0.00
0.00 0.00 0.00 0.00 0.00 0.00 0.00 0.00 0.00 0.00 0.00 0.00 0.00 0.00 0.00 0.00 0.00 0.00 0.00 0.00 0.00 0.00 0.00 0.00 0.00 0.00 0.00 0.00 0.00 0.00 0.00 0.00 0.00 0.00 0.00 0.00 0.00 0.00 0.00 0.00 0.00 0.00 0.00 0.00 0.00
0.00 0.00 0.00 0.00 0.00 0.00 0.00 0.00 0.00 0.00 0.00 0.00 0.00 0.00 0.00 0.00 0.00 0.00 0.00 0.00 0.00 0.00 0.00 0.00 0.00 0.00 0.00 0.00 0.00 0.00 0.00 0.00 0.00 0.00 0.00 0.00 0.00 0.00 0.00 0.00 0.00 0.00 0.00 0.00 0.00
0.00 0.00 0.00 0.00 0.00 0.00 0.00 0.00 0.00 0.00 0.00 0.00 0.00 0.00 0.00 0.00 0.00 0.00 0.00 0.00 0.00 0.00 0.00 0.00 0.00 0.00 0.00 0.00 0.00 0.00 0.00 0.00 0.00 0.00 0.00 0.00 0.00 0.00 0.00 0.00 0.00 0.00 0.00 0.00 0.00
0.00 0.00 0.00 0.00 0.00 0.00 0.00 0.00 0.00 0.00 0.00 0.00 0.00 0.00 0.00 0.00 0.00 0.00 0.00 0.00 0.00 0.00 0.00 0.00 0.00 0.00 0.00 0.00 0.00 0.00 0.00 0.00 0.00 0.00 0.00 0.00 0.00 0.00 0.00 0.00 0.00 0.00 0.00 0.00 0.00
0.00 0.00 0.00 0.00 0.00 0.00 0.00 0.00 0.00 0.00 0.00 0.00 0.00 0.00 0.00 0.00 0.00 0.00 0.00 0.00 0.00 0.00 0.00 0.00 0.00 0.00 0.00 0.00 0.00 0.00 0.00 0.00 0.00 0.00 0.00 0.00 0.00 0.00 0.00 0.00 0.00 0.00 0.00 0.00 0.00
0.00 0.00 0.00 0.00 0.00 0.00 0.00 0.00 0.00 0.00 0.00 0.00 0.00 0.00 0.00 0.00 0.00 0.00 0.00 0.00 0.00 0.00 0.00 0.00 0.00 0.00 0.00 0.00 0.00 0.00 0.00 0.00 0.00 0.00 0.00 0.00 0.00 0.00 0.00 0.00 0.00 0.00 0.00 0.00 0.00
0.00 0.00 0.00 0.00 0.00 0.00 0.00 0.00 0.00 0.00 0.00 0.00 0.00 0.00 0.00 0.00 0.00 0.00 0.00 0.00 0.00 0.00 0.00 0.00 0.00 0.00 0.00 0.00 0.00 0.00 0.00 0.00 0.00 0.00 0.00 0.00 0.00 0.00 0.00 0.00 0.00 0.00 0.00 0.00 0.00
0.00 0.00 0.00 0.00 0.00 0.00 0.00 0.00 0.00 0.00 0.00 0.00 0.00 0.00 0.00 0.00 0.00 0.00 0.00 0.00 0.00 0.00 0.00 0.00 0.00 0.00 0.00 0.00 0.00 0.00 0.00 0.00 0.00 0.00 0.00 0.00 0.00 0.00 0.00 0.00 0.00 0.00 0.00 0.00 0.00
0.00 0.00 0.00 0.00 0.00 0.00 0.00 0.00 0.00 0.00 0.00 0.00 0.00 0.00 0.00 0.00 0.00 0.00 0.00 0.00 0.00 0.00 0.00 0.00 0.00 0.00 0.00 0.00 0.00 0.00 0.00 0.00 0.00 0.00 0.00 0.00 0.00 0.00 0.00 0.00 0.00 0.00 0.00 0.00 0.00
0.00 0.00 0.00 0.00 0.00 0.00 0.00 0.00 0.00 0.00 0.00 0.00 0.00 0.00 0.00 0.00 0.00 0.00 0.00 0.00 0.00 0.00 0.00 0.00 0.00 0.00 0.00 0.00 0.00 0.00 0.00 0.00 0.00 0.00 0.00 0.00 0.00 0.00 0.00 0.00 0.00 0.00 0.00 0.00 0.00
0.00 0.00 0.00 0.00 0.00 0.00 0.00 0.00 0.00 0.00 0.00 0.00 0.00 0.00 0.00 0.00 0.00 0.00 0.00 0.00 0.00 0.00 0.00 0.00 0.00 0.00 0.00 0.00 0.00 0.00 0.00 0.00 0.00 0.00 0.00 0.00 0.00 0.00 0.00 0.00 0.00 0.00 0.00 0.00 0.00
0.00 0.00 0.00 0.00 0.00 0.00 0.00 0.00 0.00 0.00 0.00 0.00 0.00 0.00 0.00 0.00 0.00 0.00 0.00 0.00 0.00 0.00 0.00 0.00 0.00 0.00 0.00 0.00 0.00 0.00 0.00 0.00 0.00 0.00 0.00 0.00 0.00 0.00 0.00 0.00 0.00 0.00 0.00 0.00 0.00
0.00 0.00 0.00 0.00 0.00 0.00 0.00 0.00 0.00 0.00 0.00 0.00 0.00 0.00 0.00 0.00 0.00 0.00 0.00 0.00 0.00 0.00 0.00 0.00 0.00 0.00 0.00 0.00 0.00 0.00 0.00 0.00 0.00 0.00 0.00 0.00 0.00 0.00 0.00 0.00 0.00 0.00 0.00 0.00 0.00
0.00 0.00 0.00 0.00 0.00 0.00 0.00 0.00 0.00 0.00 0.00 0.00 0.00 0.00 0.00 0.00 0.00 0.00 0.00 0.00 0.00 0.00 0.00 0.00 0.00 0.00 0.00 0.00 0.00 0.00 0.00 0.00 0.00 0.00 0.00 0.00 0.00 0.00 0.00 0.00 0.00 0.00 0.00 0.00 0.00
0.00 0.00 0.00 0.00 0.00 0.00 0.00 0.00 0.00 0.00 0.00 0.00 0.00 0.00 0.00 0.00 0.00 0.00 0.00 0.00 0.00 0.00 0.00 0.00 0.00 0.00 0.00 0.00 0.00 0.00 0.00 0.00 0.00 0.00 0.00 0.00 0.00 0.00 0.00 0.00 0.00 0.00 0.00 0.00 0.00
0.00 0.00 0.00 0.00 0.00 0.00 0.00 0.00 0.00 0.00 0.00 0.00 0.00 0.00 0.00 0.00 0.00 0.00 0.00 0.00 0.00 0.00 0.00 0.00 0.00 0.00 0.00 0.00 0.00 0.00 0.00 0.00 0.00 0.00 0.00 0.00 0.00 0.00 0.00 0.00 0.00 0.00 0.00 0.00 0.00
0.00 0.00 0.00 0.00 0.00 0.00 0.00 0.00 0.00 0.00 0.00 0.00 0.00 0.00 0.00 0.00 0.00 0.00 0.00 0.00 0.00 0.00 0.00 0.00 0.00 0.00 0.00 0.00 0.00 0.00 0.00 0.00 0.00 0.00 0.00 0.00 0.00 0.00 0.00 0.00 0.00 0.00 0.00 0.00 0.00
0.01 0.00 0.00 0.00 0.00 0.00 0.00 0.00 0.00 0.00 0.00 0.00 0.00 0.00 0.00 0.00 0.00 0.00 0.00 0.00 0.00 0.00 0.00 0.00 0.00 0.00 0.00 0.00 0.00 0.00 0.00 0.00 0.00 0.00 0.00 0.00 0.00 0.00 0.00 0.00 0.00 0.00 0.00 0.00 0.00
0.04 0.02 0.01 0.00 0.00 0.00 0.00 0.00 0.00 0.00 0.00 0.00 0.00 0.00 0.00 0.00 0.00 0.00 0.00 0.00 0.00 0.00 0.00 0.00 0.00 0.00 0.00 0.00 0.00 0.00 0.00 0.00 0.00 0.00 0.00 0.00 0.00 0.00 0.00 0.00 0.00 0.00 0.00 0.00 0.00
MSLP
1019.05 1018.56 1018.11 1017.58 1017.07 1016.57 1016.15 1015.75 1015.24 1014.79 1014.25 1013.84 1013.48 1012.99 1012.47 1011.95 1011.03 1010.22 1007.56 1005.89 1006.10 1007.00 1007.32 1006.46 1005.81 1005.10 1004.51 1003.50 1002.04 1001.23 999.51 998.02 999.13 999.95 1001.83 1002.86 1003.42 1004.28 1005.17 1006.23 1006.66 1006.94 1008.13 1010.43 1011.92
1019.26 1018.77 1018.22 1017.65 1017.10 1016.57 1016.05 1015.59 1015.12 1014.61 1014.13 1013.63 1013.10 1012.70 1012.29 1011.81 1010.03 1007.29 1005.50 1005.88 1006.21 1006.81 1006.52 1005.39 1004.71 1004.17 1003.22 1001.94 1000.96 999.83 998.13 999.12 999.45 1000.23 1001.55 1002.70 1003.38 1004.47 1005.13 1005.95 1006.72 1007.15 1008.71 1010.38 1011.61
1019.22 1018.74 1018.27 1017.71 1017.09 1016.50 1015.97 1015.37 1014.90 1014.41 1013.91 1013.42 1012.89 1012.42 1011.98 1011.45 1008.41 1004.53 1005.61 1006.06 1006.35 1006.57 1005.28 1004.73 1003.93 1003.33 1002.47 1000.93 1000.04 999.27 998.63 999.31 999.92 1000.81 1001.64 1002.62 1003.73 1004.29 1004.76 1005.16 1006.37 1007.56 1008.79 1010.03 1010.89
1019.29 1018.72 1018.16 1017.68 1017.11 1016.53 1015.90 1015.28 1014.65 1014.08 1013.59 1013.18 1012.77 1012.21 1011.80 1010.29 1006.29 1004.73 1005.75 1006.15 1006.34 1006.05 1005.09 1004.23 1003.65 1002.71 1001.56 1000.14 1000.00 999.55 999.44 999.74 1000.20 1000.95 1001.80 1002.14 1003.35 1003.85 1004.16 1004.89 1006.22 1007.67 1008.94 1009.77 1010.34
1019.45 1018.86 1018.26 1017.56 1017.00 1016.39 1015.87 1015.19 1014.45 1013.81 1013.25 1012.82 1012.55 1012.25 1011.24 1008.21 1004.88 1004.99 1005.68 1006.32 1006.42 1006.09 1004.59 1003.69 1002.99 1002.13 1000.94 999.85 1000.01 999.61 999.42 999.97 1000.38 1001.06 1001.81 1002.70 1003.01 1003.98 1004.64 1005.57 1006.63 1007.86 1008.95 1009.58 1009.96
1019.64 1019.02 1018.30 1017.60 1016.82 1016.06 1015.45 1014.87 1014.17 1013.41 1012.77 1012.37 1012.19 1012.26 1010.29 1006.21 1003.69 1003.89 1004.52 1005.55 1005.02 1005.21 1004.05 1003.29 1002.41 1001.71 1000.77 1000.16 999.82 999.57 999.75 999.93 1000.48 1001.31 1001.99 1002.25 1003.43 1003.71 1005.21 1005.91 1006.96 1008.06 1008.78 1009.25 1009.49
1019.65 1018.98 1018.33 1017.53 1016.66 1015.84 1014.95 1014.36 1013.69 1012.92 1012.19 1011.77 1011.78 1011.31 1008.03 1004.74 1003.51 1003.73 1003.91 1004.19 1004.24 1004.25 1003.46 1002.94 1002.36 1001.69 1000.84 1000.15 1000.03 999.77 999.49 999.98 1000.44 1001.21 1001.72 1002.00 1002.72 1003.41 1005.08 1005.94 1006.99 1007.84 1008.53 1008.98 1009.31
1019.54 1018.88 1018.13 1017.34 1016.43 1015.44 1014.55 1013.71 1013.07 1012.39 1011.69 1011.29 1011.39 1010.15 1005.99 1003.02 1003.05 1003.71 1003.43 1003.31 1003.57 1003.65 1003.33 1002.77 1002.48 1001.95 1001.09 1000.11 999.97 999.33 998.93 998.97 1000.13 1000.86 1001.33 1001.73 1001.98 1003.68 1004.85 1005.66 1006.63 1007.39 1008.01 1008.61 1009.11
1019.50 1018.68 1017.90 1017.01 1016.10 1015.04 1013.97 1012.99 1012.32 1011.80 1011.37 1011.20 1010.56 1008.29 1004.15 1003.65 1003.28 1002.89 1002.95 1002.60 1002.96 1003.23 1003.28 1002.89 1002.48 1001.94 1001.06 1000.22 999.25 998.87 997.67 998.45 999.68 1000.33 1000.73 1001.73 1001.14 1003.21 1004.23 1004.98 1005.87 1006.75 1007.41 1008.02 1008.59
1019.59 1018.63 1017.71 1016.65 1015.62 1014.55 1013.37 1011.95 1011.37 1011.52 1011.05 1009.99 1008.39 1006.67 1003.29 1001.95 1001.60 1001.84 1002.25 1002.21 1002.47 1002.56 1002.89 1002.70 1002.31 1001.23 1000.34 999.41 997.58 997.28 997.12 998.24 998.86 999.79 1000.29 1000.47 1000.77 1002.45 1003.43 1004.02 1004.84 1005.71 1006.56 1007.21 1007.71
1019.53 1018.68 1017.61 1016.28 1015.19 1013.99 1012.94 1009.80 1010.50 1009.82 1008.15 1005.26 1003.44 1002.56 1001.35 1001.01 1001.70 1001.35 1001.79 1001.89 1002.03 1002.01 1001.52 1001.80 1001.07 999.53 998.72 998.43 997.09 996.47 997.04 997.27 997.31 998.64 999.60 999.43 999.95 1001.01 1002.53 1003.01 1003.63 1004.49 1005.49 1006.21 1006.77
1019.26 1018.47 1017.60 1016.22 1014.81 1013.51 1012.86 1009.33 1009.69 1009.75 1006.75 1004.05 1002.99 1001.79 1001.06 1000.62 1000.87 1000.99 1001.43 1001.29 1001.24 1000.78 1000.81 1000.69 999.27 998.82 998.53 997.92 997.06 996.61 996.27 996.33 996.89 998.06 998.99 998.95 999.18 999.51 1000.71 1001.76 1002.25 1003.13 1004.11 1004.97 1005.78
1019.44 1018.42 1017.39 1015.99 1014.37 1012.41 1010.74 1009.93 1009.60 1008.99 1006.42 1001.91 1000.61 1000.39 1000.45 1000.83 999.95 999.88 1000.69 1000.44 1000.14 1000.04 999.53 998.56 998.47 998.60 998.10 997.49 997.10 996.62 996.51 996.10 996.47 997.69 998.49 998.35 998.43 998.37 999.03 1000.39 1001.25 1001.89 1002.78 1003.78 1004.47
1019.48 1018.65 1017.57 1016.11 1014.11 1011.81 1009.67 1009.81 1009.34 1008.98 1005.30 999.64 998.69 998.71 999.23 999.99 999.59 999.01 999.99 1000.02 999.36 999.02 998.82 998.32 997.93 997.77 997.35 996.99 996.96 996.28 996.78 996.38 996.41 997.35 997.25 998.01 997.06 997.51 997.46 998.47 999.83 1000.71 1001.39 1002.33 1003.34
1019.25 1018.53 1017.79 1017.26 1015.21 1011.59 1010.41 1010.13 1009.53 1008.49 1002.83 997.73 997.63 997.64 997.92 998.31 997.21 998.45 998.97 999.43 998.64 998.47 998.44 997.39 997.37 996.83 996.70 996.44 996.55 996.41 996.19 996.46 996.46 996.69 997.11 997.23 996.98 996.01 996.82 996.99 998.13 999.36 1000.14 1001.00 1002.03
1018.93 1018.17 1017.68 1014.22 1013.43 1011.63 1010.95 1010.33 1009.14 1006.27 999.74 996.77 997.05 997.41 997.19 997.56 996.99 997.00 998.16 999.02 998.58 998.08 997.89 997.16 997.18 996.63 996.20 996.32 996.53 996.73 996.19 996.13 996.91 996.49 996.30 996.26 996.07 995.27 995.11 995.89 996.63 998.00 998.91 999.89 1000.79
1018.39 1017.49 1017.21 1015.71 1011.91 1011.33 1011.31 1009.76 1006.74 1001.96 997.41 995.59 995.87 996.15 996.20 996.37 996.45 996.25 997.20 997.58 997.21 997.21 996.86 996.94 996.20 996.53 996.33 996.21 996.29 996.21 995.98 996.11 996.39 995.99 995.71 995.56 995.69 994.85 994.55 994.96 995.42 996.33 997.59 998.67 999.77
1017.92 1016.31 1014.21 1013.26 1012.26 1011.93 1011.01 1008.69 1003.73 998.64 996.73 995.36 994.80 995.02 995.14 995.01 995.57 995.61 996.31 996.43 996.78 996.37 995.55 995.81 995.87 995.79 995.95 995.67 995.32 995.31 995.48 995.33 995.38 995.47 995.34 995.31 994.66 994.33 994.67 994.80 995.13 995.47 996.21 997.47 998.45
1017.58 1014.01 1011.84 1010.98 1011.85 1011.74 1010.05 1006.08 1000.98 998.94 996.63 995.34 995.07 994.29 994.30 994.06 994.62 994.97 995.23 995.18 995.31 995.32 995.12 994.43 994.57 995.05 995.52 995.62 995.21 994.95 994.91 995.59 995.15 994.79 994.41 993.41 993.81 994.23 994.38 994.54 995.07 995.07 995.45 996.27 997.17
1017.41 1014.29 1011.03 1010.63 1011.30 1010.90 1008.65 1004.33 1001.05 998.76 997.91 997.05 995.23 994.45 993.49 993.38 993.72 993.72 993.94 994.05 994.21 994.66 994.64 993.75 993.56 993.81 994.66 995.41 994.74 994.11 995.46 995.50 994.85 994.36 993.86 993.08 993.08 992.83 993.46 994.21 994.61 994.41 994.58 995.25 996.18
1016.77 1012.39 1010.34 1010.73 1010.86 1009.53 1006.19 1003.91 1002.23 1000.55 999.64 998.89 997.07 995.14 993.86 992.78 992.91 992.85 992.85 993.10 993.29 993.47 994.25 993.93 993.60 993.10 993.60 993.99 993.98 994.34 994.12 994.43 994.91 994.51 993.78 993.23 992.27 992.51 992.95 993.49 993.79 993.80 993.89 994.27 994.75
1015.44 1011.66 1010.09 1010.56 1009.53 1007.37 1005.23 1004.09 1002.99 1001.02 1000.20 999.77 998.85 997.46 995.69 993.92 992.69 992.42 991.88 992.00 992.27 992.83 992.85 993.72 993.44 993.14 992.50 993.44 994.18 993.85 993.79 994.04 993.60 994.01 993.61 993.24 992.17 991.95 992.07 992.79 993.75 993.56 993.69 994.04 994.37
1014.85 1011.75 1009.98 1010.29 1008.07 1006.05 1004.63 1003.58 1002.75 1002.07 1001.41 1000.81 999.47 998.69 997.40 995.95 994.41 993.09 992.31 991.86 992.22 992.19 992.31 993.38 993.48 992.94 992.74 992.67 993.19 993.35 993.23 993.45 993.82 993.67 992.91 992.76 992.06 991.99 991.98 992.45 993.07 993.54 994.07 994.45 994.91
1015.61 1011.14 1008.87 1009.01 1008.23 1006.79 1005.27 1003.76 1003.41 1003.75 1003.01 1002.13 1000.71 999.51 998.42 997.25 995.95 994.76 993.83 992.57 993.46 993.13 993.52 993.00 993.21 992.71 991.53 991.75 992.27 992.84 993.08 993.11 993.10 992.67 992.64 992.16 992.17 991.94 991.94 992.53 993.05 993.65 993.81 994.27 994.60
1015.11 1011.76 1010.69 1008.95 1007.87 1007.44 1007.31 1006.52 1005.29 1004.19 1003.51 1003.03 1001.76 1000.85 999.47 998.29 997.13 996.33 995.33 993.64 994.24 994.20 994.02 993.27 992.86 992.83 992.57 991.92 991.69 991.95 992.53 992.67 992.29 992.21 991.73 991.87 991.61 991.64 991.79 992.08 992.57 993.28 993.75 993.98 994.26
1016.41 1014.25 1012.84 1011.22 1010.02 1009.51 1008.78 1007.66 1006.81 1005.71 1004.77 1004.19 1003.46 1001.53 1000.83 999.81 998.76 997.94 997.18 995.73 994.75 994.49 994.31 993.69 993.05 993.33 992.64 992.54 992.01 991.06 991.09 991.55 991.54 991.45 991.52 991.86 991.39 991.44 991.72 992.09 992.33 992.81 993.49 993.68 994.16
1017.07 1016.15 1014.91 1012.75 1010.93 1009.63 1008.29 1007.58 1007.03 1007.02 1006.53 1005.81 1005.31 1004.31 1003.11 1002.28 1001.65 1000.85 1000.08 998.47 996.59 995.01 994.28 993.69 993.43 993.52 992.60 992.75 992.25 991.25 990.12 990.26 990.69 991.16 991.18 991.43 991.77 991.93 991.64 991.69 992.00 992.69 992.99 993.37 993.61
Thickness
5732 5737 5741 5745 5750 5754 5757 5761 5765 5770 5775 5780 5784 5788 5794 5800 5811 5821 5831 5854 5857 5854 5853 5857 5859 5861 5865 5859 5876 5882 5855 5865 5856 5847 5834 5849 5837 5847 5846 5824 5827 5831 5820 5808 5802
5726 5731 5736 5741 5746 5751 5756 5760 5764 5769 5774 5779 5784 5788 5793 5799 5816 5831 5858 5857 5857 5855 5853 5853 5850 5860 5855 5864 5874 5869 5876 5857 5877 5866 5847 5848 5843 5836 5830 5822 5819 5823 5822 5814 5805
5723 5727 5731 5736 5743 5748 5753 5759 5764 5768 5773 5778 5783 5788 5793 5799 5817 5843 5855 5854 5855 5855 5866 5866 5868 5862 5851 5872 5877 5880 5868 5876 5872 5869 5864 5849 5838 5846 5831 5821 5824 5815 5814 5813 5809
5718 5723 5728 5733 5738 5744 5751 5757 5763 5769 5773 5777 5782 5787 5791 5805 5796 5851 5850 5851 5852 5857 5861 5860 5858 5850 5850 5860 5879 5860 5878 5876 5872 5871 5859 5851 5852 5840 5844 5839 5843 5832 5824 5817 5811
5714 5718 5722 5729 5735 5741 5747 5754 5761 5768 5774 5778 5781 5784 5796 5806 5823 5850 5848 5846 5849 5852 5854 5854 5851 5855 5848 5873 5872 5866 5876 5878 5878 5871 5863 5858 5849 5840 5839 5847 5845 5834 5825 5819 5818
5711 5715 5720 5725 5731 5739 5746 5752 5759 5768 5774 5779 5781 5781 5795 5796 5856 5856 5855 5848 5852 5849 5855 5861 5859 5870 5863 5865 5866 5879 5877 5877 5876 5866 5861 5852 5844 5849 5839 5847 5836 5829 5822 5823 5823
5709 5714 5719 5724 5730 5736 5744 5751 5758 5767 5774 5779 5780 5786 5802 5815 5855 5856 5856 5852 5857 5855 5851 5866 5873 5865 5872 5861 5882 5878 5865 5871 5869 5865 5857 5866 5839 5837 5845 5844 5830 5826 5825 5825 5826
5708 5713 5718 5724 5731 5738 5744 5751 5758 5766 5773 5778 5779 5790 5801 5854 5858 5849 5856 5854 5861 5862 5861 5871 5875 5865 5864 5881 5872 5866 5877 5852 5866 5866 5867 5861 5826 5842 5849 5839 5828 5829 5828 5827 5827
5705 5711 5717 5724 5731 5739 5747 5754 5759 5764 5770 5773 5781 5793 5805 5846 5836 5852 5856 5846 5853 5856 5860 5867 5865 5853 5862 5849 5850 5862 5855 5850 5850 5872 5864 5848 5837 5848 5853 5843 5832 5831 5830 5829 5829
5700 5708 5715 5724 5732 5741 5750 5760 5762 5761 5767 5777 5790 5787 5821 5825 5848 5854 5860 5858 5844 5845 5839 5841 5841 5838 5848 5846 5833 5853 5859 5849 5848 5862 5863 5855 5852 5852 5854 5849 5840 5838 5835 5833 5833
5694 5702 5711 5723 5732 5742 5752 5776 5770 5768 5777 5795 5811 5813 5828 5846 5851 5845 5854 5846 5844 5835 5819 5834 5822 5824 5849 5862 5880 5890 5870 5861 5882 5879 5862 5866 5863 5858 5856 5856 5849 5845 5840 5838 5838
5690 5696 5704 5718 5730 5741 5747 5774 5763 5760 5766 5802 5808 5818 5835 5845 5821 5835 5852 5828 5826 5815 5831 5823 5820 5853 5866 5873 5876 5880 5875 5877 5888 5882 5868 5866 5863 5878 5868 5861 5863 5856 5850 5847 5846
5680 5689 5698 5711 5727 5745 5758 5759 5766 5768 5763 5803 5820 5816 5823 5829 5822 5829 5840 5835 5825 5818 5827 5828 5843 5860 5857 5861 5859 5869 5865 5877 5874 5876 5874 5871 5857 5873 5882 5874 5872 5871 5867 5860 5855
5669 5678 5687 5702 5722 5741 5753 5758 5763 5765 5758 5808 5814 5821 5827 5826 5812 5850 5847 5835 5830 5822 5831 5833 5857 5849 5852 5850 5863 5852 5879 5883 5881 5858 5839 5872 5833 5863 5884 5875 5872 5872 5872 5868 5863
5658 5667 5675 5682 5701 5727 5740 5747 5755 5755 5749 5821 5819 5849 5835 5819 5838 5831 5854 5835 5820 5825 5830 5831 5838 5843 5839 5853 5872 5858 5891 5880 5879 5865 5859 5855 5847 5877 5886 5876 5874 5876 5877 5878 5875
5646 5656 5664 5692 5701 5718 5728 5736 5742 5733 5750 5806 5820 5809 5811 5817 5825 5838 5830 5837 5841 5828 5833 5838 5861 5856 5859 5871 5871 5879 5877 5878 5870 5868 5835 5861 5859 5866 5882 5881 5886 5885 5886 5885 5883
5634 5646 5654 5666 5697 5708 5712 5721 5721 5738 5811 5808 5807 5815 5811 5806 5812 5821 5812 5808 5806 5793 5802 5823 5836 5851 5863 5846 5865 5867 5857 5823 5815 5824 5824 5876 5856 5872 5903 5905 5905 5894 5892 5893 5891
5618 5637 5657 5670 5681 5688 5695 5703 5711 5780 5792 5818 5822 5817 5804 5818 5811 5815 5805 5799 5817 5821 5818 5802 5793 5836 5856 5846 5846 5855 5856 5830 5796 5811 5833 5870 5843 5870 5905 5915 5916 5917 5909 5902 5898
5600 5633 5654 5670 5667 5672 5678 5691 5737 5761 5794 5801 5806 5801 5802 5818 5813 5809 5805 5806 5821 5831 5807 5812 5813 5852 5852 5859 5861 5851 5837 5870 5851 5866 5850 5875 5879 5894 5902 5901 5902 5908 5910 5903 5904
5577 5605 5635 5651 5652 5656 5664 5689 5731 5764 5768 5777 5776 5799 5796 5807 5803 5808 5806 5824 5820 5833 5846 5838 5814 5849 5851 5856 5863 5863 5868 5829 5847 5815 5814 5858 5861 5867 5879 5881 5893 5904 5910 5911 5910
5558 5594 5618 5626 5633 5639 5659 5684 5706 5734 5743 5741 5759 5780 5800 5809 5810 5807 5811 5825 5833 5832 5838 5838 5828 5836 5849 5830 5832 5840 5842 5849 5855 5850 5826 5826 5854 5903 5894 5895 5896 5908 5919 5921 5921
5540 5567 5596 5603 5607 5637 5652 5671 5688 5710 5725 5728 5743 5754 5766 5794 5804 5806 5810 5823 5844 5838 5819 5835 5829 5809 5830 5852 5857 5855 5846 5851 5831 5820 5848 5848 5856 5920 5916 5907 5901 5910 5918 5922 5923
5518 5546 5571 5575 5589 5618 5644 5657 5672 5680 5689 5702 5719 5737 5755 5763 5768 5795 5809 5838 5836 5834 5825 5830 5809 5798 5809 5836 5845 5832 5848 5854 5853 5857 5839 5829 5849 5915 5914 5905 5907 5902 5904 5908 5908
5493 5531 5554 5559 5575 5589 5606 5626 5632 5651 5662 5680 5696 5720 5729 5739 5763 5766 5783 5816 5813 5821 5815 5831 5812 5803 5806 5822 5839 5819 5832 5845 5846 5834 5837 5842 5857 5884 5896 5892 5896 5897 5904 5904 5905
5484 5509 5518 5537 5551 5560 5567 5580 5597 5619 5644 5660 5672 5689 5706 5713 5733 5742 5768 5790 5792 5803 5809 5816 5793 5811 5821 5838 5847 5835 5827 5834 5833 5844 5835 5853 5858 5879 5891 5896 5896 5899 5898 5897 5899
5458 5474 5489 5508 5521 5527 5536 5553 5567 5590 5609 5621 5636 5668 5687 5696 5715 5720 5745 5764 5765 5792 5792 5808 5789 5800 5799 5821 5829 5832 5844 5837 5842 5850 5849 5853 5854 5895 5900 5901 5897 5895 5891 5891 5892
5440 5450 5462 5483 5504 5518 5533 5542 5554 5556 5573 5594 5602 5620 5641 5661 5676 5693 5708 5727 5745 5764 5776 5788 5788 5780 5776 5806 5815 5800 5831 5842 5844 5849 5848 5827 5853 5879 5880 5886 5887 5886 5891 5890 5893